Location: Krakow
(50.0830°N, 19.9170°E)
Time: 06:30:30
(UTC+01:00)

S-56A Canister/Altair - Visible Passes

Search period start: 10 December 2023 00:00
Search period end: 20 December 2023 00:00
Orbit: 640 x 2489 km, 38.8° (Epoch: 09 December)

Date Brightness Start Highest point End Pass type
(mag) Time Alt. Az. Time Alt. Az. Time Alt. Az.
16 Dec 11.1 06:31:22 10° S 06:35:29 14° SSE 06:38:57 10° SE visible
17 Dec 11.2 05:58:08 10° S 06:02:18 14° SSE 06:05:52 10° SE visible
18 Dec 11.2 05:24:56 10° S 05:29:05 14° SSE 05:32:40 10° SE visible
19 Dec 11.3 04:51:49 10° S 04:55:50 13° SSE 04:59:20 10° SE visible
19 Dec 10.4 06:52:15 10° SW 06:59:19 26° SSE 07:04:35 10° ESE visible
